EW3029 Weather Reports


time (UTC)temp
C
wind
direction
speed
KPH
gust
KPH
rain 1hr
cm
rain 24hr
cm
rain mn
cm
humidity
%
barometer
mb
20260505230050 11 327 6.4 22.5 0.00 0.00 0.00 75 1010.7
20260505224533 11 218 9.7 29.0 0.00 0.00 0.00 74 1010.7
20260505223030 11 65 4.8 20.9 0.00 0.00 0.00 74 1010.5
20260505221533 11 9 11.3 27.4 0.00 0.00 0.00 74 1010.2
20260505220026 12 32 8.0 25.7 0.00 0.00 0.00 74 1010.0
20260505214527 12 12 11.3 24.1 0.00 0.00 0.00 73 1009.9
20260505213028 12 34 9.7 25.7 0.00 0.00 0.00 73 1009.3
20260505211523 12 58 16.1 27.4 0.00 0.00 0.00 73 1009.7
20260505210022 12 6 14.5 24.1 0.00 0.00 0.00 74 1009.3
20260505204522 12 21 9.7 25.7 0.00 0.00 0.00 75 1009.5
20260505203022 12 328 9.7 24.1 0.00 0.00 0.00 75 1009.9
20260505201515 12 60 11.3 24.1 0.00 0.00 0.00 75 1009.1
20260505200027 12 43 8.0 24.1 0.00 0.00 0.00 76 1008.9
20260505194515 12 32 9.7 22.5 0.00 0.00 0.00 78 1008.9
20260505193012 12 57 9.7 30.6 0.00 0.00 0.00 79 1008.9
20260505191510 12 32 9.7 20.9 0.00 0.00 0.00 80 1008.8
20260505190008 12 25 8.0 25.7 0.00 0.00 0.00 81 1008.6
20260505184503 12 58 9.7 29.0 0.00 0.00 0.00 80 1008.5
20260505183107 13 8 8.0 25.7 0.00 0.00 0.00 79 1008.4
20260505181556 13 44 12.9 25.7 0.00 0.00 0.00 78 1008.2
20260505180053 13 54 8.0 22.5 0.00 0.00 0.00 79 1007.9
20260505174552 13 46 9.7 22.5 0.00 0.00 0.00 80 1007.7
20260505173051 13 19 8.0 17.7 0.00 0.00 0.00 80 1007.5
20260505171548 13 18 12.9 27.4 0.00 0.00 0.00 81 1007.2
20260505170044 13 52 11.3 22.5 0.00 0.00 0.00 82 1006.9
20260505164556 13 13 14.5 24.1 0.00 0.00 0.00 82 1006.7
20260505163043 13 56 12.9 24.1 0.00 0.00 0.00 83 1006.3
20260505161535 13 41 14.5 29.0 0.00 0.00 0.00 82 1005.7
20260505153023 15 20 11.3 30.6 0.00 0.00 0.00 82 1004.3
20260505151519 16 53 12.9 27.4 0.00 0.00 0.00 82 1003.8
20260505124556 20 356 0.0 0.0 0.00 0.00 0.00 83 1001.4
20260505123104 20 356 0.0 0.0 0.00 0.00 0.00 81 1001.3
20260505121552 20 356 0.0 1.6 0.00 0.00 0.00 80 1001.0
20260505120048 20 356 0.0 1.6 0.00 0.00 0.00 79 1000.8
20260505114546 21 29 0.0 4.8 0.00 0.00 0.00 76 1000.6
20260505113042 21 208 0.0 3.2 0.00 0.00 0.00 74 1000.1
20260505111549 22 238 1.6 17.7 0.00 0.00 0.00 73 999.2
20260505101531 22 226 11.3 24.1 0.00 0.00 0.00 72 998.4
20260505100040 22 200 9.7 22.5 0.00 0.00 0.00 72 998.5
20260505094525 22 207 9.7 20.9 0.00 0.00 0.00 72 998.4
20260505093025 22 231 9.7 19.3 0.00 0.00 0.00 72 998.3
20260505091523 22 161 9.7 22.5 0.00 0.00 0.00 72 998.3
20260505090031 22 250 11.3 24.1 0.00 0.00 0.00 72 998.6
20260505084524 22 189 9.7 25.7 0.00 0.00 0.00 72 998.7
20260505083031 22 210 9.7 22.5 0.00 0.00 0.00 72 998.8
20260505081517 22 181 11.3 27.4 0.00 0.00 0.00 72 999.0
20260505080020 22 212 8.0 24.1 0.00 0.00 0.00 72 999.1
20260505074511 22 153 12.9 25.7 0.00 0.00 0.00 73 999.2
20260505073009 22 197 9.7 22.5 0.00 0.00 0.00 72 999.3
20260505071508 22 240 11.3 25.7 0.00 0.00 0.00 72 999.5
20260505070003 22 191 9.7 24.1 0.00 0.00 0.00 72 999.6
20260505064501 22 177 8.0 22.5 0.00 0.00 0.00 72 999.9
20260505063101 22 248 11.3 24.1 0.00 0.00 0.00 71 999.9
20260505061624 22 164 12.9 24.1 0.00 0.00 0.00 72 1000.0
20260505060055 22 231 11.3 19.3 0.00 0.00 0.00 72 1000.2
20260505054603 22 227 9.7 27.4 0.00 0.00 0.00 71 1000.3
20260505053048 22 219 11.3 24.1 0.00 0.00 0.00 71 1000.5
20260505051547 22 162 12.9 27.4 0.00 0.00 0.00 71 1000.7
20260505041542 23 201 11.3 22.5 0.00 0.00 0.00 70 1001.1
20260505040041 23 179 14.5 25.7 0.00 0.00 0.00 69 1001.3
20260505034640 23 191 9.7 24.1 0.00 0.00 0.00 69 1001.3
20260505033047 23 216 8.0 20.9 0.00 0.00 0.00 68 1001.3
20260505031537 23 220 9.7 20.9 0.00 0.00 0.00 67 1001.1
20260505030037 24 221 11.3 30.6 0.00 0.00 0.00 66 1000.8
20260505024601 24 199 9.7 24.1 0.00 0.00 0.00 65 1000.6
20260505023038 24 196 8.0 19.3 0.00 0.00 0.00 64 1000.9
20260505021546 25 215 9.7 22.5 0.00 0.00 0.00 63 1000.5
20260505020035 25 216 9.7 32.2 0.00 0.00 0.00 62 1000.3
20260505014532 25 199 11.3 24.1 0.00 0.00 0.00 61 1000.4
20260505013032 25 173 12.9 24.1 0.00 0.00 0.00 60 1000.6
20260505011535 25 192 9.7 27.4 0.00 0.00 0.00 60 1000.5
20260505010027 26 217 8.0 19.3 0.00 0.00 0.00 59 1000.9
20260505004537 26 165 12.9 24.1 0.00 0.00 0.00 58 1000.7
20260505003026 26 195 11.3 25.7 0.00 0.00 0.00 56 1000.9
20260505001525 26 228 8.0 33.8 0.00 0.00 0.00 56 1000.9
20260505000022 27 177 9.7 30.6 0.00 0.00 0.00 54 1001.2
20260504234521 27 164 8.0 22.5 0.00 0.00 0.00 52 1001.3
20260504233019 27 238 6.4 20.9 0.00 0.00 0.00 53 1001.5
20260504231517 27 195 8.0 17.7 0.00 0.00 0.00 52 1001.6